Regional Weather Roundup
Issued by NWS

Home | Current Version | Previous Version | Text Only | Print | Product List | Glossary Off
Versions: 1 2 3 4 5 6 7 8 9 10 11 12 13 14 15 16 17 18 19 20 21 22 23 24 25 26 27 28 29 30 31 32 33 34 35 36 37 38 39 40 41 42 43 44 45 46 47 48 49 50

000
ASUS43 KFSD 240602
RWRSD

WEATHER ROUNDUP FOR SOUTH DAKOTA
NATIONAL WEATHER SERVICE SIOUX FALLS SD
100 AM CDT THU APR 24 2014

NOTE: "FAIR" INDICATES FEW OR NO CLOUDS BELOW 12,000 FEET WITH NO
SIGNIFICANT WEATHER AND/OR OBSTRUCTIONS TO VISIBILITY.


SDZ001>005-009-010-012>017-240700-
NORTHWEST AND NORTH CENTRAL SOUTH DAKOTA

CITY           SKY/WX    TMP DP  RH WIND       PRES   REMARKS
BUFFALO          N/A     38  25  59 W10       29.73R
FAITH            N/A     44  33  65 W8        29.77S
MOBRIDGE       PTCLDY    35  33  92 NW5       29.72F
$$

SDZ012>016-024>037-041>051-057-063-072>074-240700-
SOUTHWEST AND SOUTH CENTRAL SOUTH DAKOTA

CITY           SKY/WX    TMP DP  RH WIND       PRES   REMARKS
RAPID CTY ARPT CLOUDY    41  28  60 NW7       29.82R
PIERRE         MOCLDY    46  37  71 NW12      29.74S
CUSTER         CLOUDY    37  20  50 W5        29.85R
ELLSWORTH AFB  CLOUDY    44  30  59 MISG      29.82R
PHILIP         MOCLDY    45  34  65 W5        29.79S
PINE RIDGE     CLOUDY    46  35  65 CALM      29.86R
WINNER         FAIR      53  38  56 NW13      29.75S
$$

SDZ004>011-016>023-039-040-240700-
NORTHEAST SOUTH DAKOTA

CITY           SKY/WX    TMP DP  RH WIND       PRES   REMARKS
ABERDEEN       MOCLDY    39  38  96 N8        29.75R
WATERTOWN      FAIR      42  37  82 SE10      29.72F
SISSETON         N/A     41  38  89 SE13      29.77R
$$

SDZ017-020-022-023-036>040-048>070-240700-
SOUTHEAST SOUTH DAKOTA

CITY           SKY/WX    TMP DP  RH WIND       PRES   REMARKS
SIOUX FALLS    CLOUDY    47  40  76 E13       29.68F
HURON          CLOUDY    50  40  68 SE9       29.69S
CHAMBERLAIN      N/A     54  39  57 N13       29.71S
MITCHELL       CLOUDY    49  42  77 SE8       29.67R
YANKTON        FAIR      50  45  81 SE7       29.66R
$$

ABBREVIATIONS USED IN REMARKS
   TC - TEMPERATURE IN CELSIUS
  WCI - WIND CHILL INDEX
   HX - HEAT INDEX
  VSB - VISIBILITY




USA.gov is the U.S. government's official web portal to all federal, state and local government web resources and services.